Location: Unspecified
(0.0000°N, 0.0000°E)
Time: 08:16:05
(UTC+02:00)

SWIFT - Visible Passes

Search period start: 28 July 2014 00:00
Search period end: 07 August 2014 00:00
Orbit: 561 x 578 km, 20.6° (Epoch: 27 July)

Date Brightness Start Highest point End Pass type
(mag) Time Alt. Az. Time Alt. Az. Time Alt. Az.
30 Jul 4.6 20:39:42 10° S 20:40:44 11° SSE 20:41:47 10° SSE visible
31 Jul 4.3 20:37:59 10° SSW 20:40:23 15° SSE 20:42:47 10° SE visible
31 Jul 5.2 22:18:44 10° SW 22:18:54 11° SW 22:18:54 11° SW visible
01 Aug 3.9 20:36:50 10° SSW 20:39:59 20° SSE 20:42:57 11° ESE visible
01 Aug 4.9 22:18:07 10° WSW 22:18:57 15° WSW 22:18:57 15° WSW visible
02 Aug 3.5 20:35:52 10° SW 20:39:33 28° SSE 20:43:02 11° ESE visible
02 Aug 4.7 22:17:36 10° WSW 22:19:03 21° WSW 22:19:03 21° WSW visible
03 Aug 5.2 06:55:11 10° N 06:56:43 12° NNE 06:58:15 10° NE visible
03 Aug 2.9 20:35:03 10° SW 20:39:05 40° SSE 20:43:07 10° E visible
03 Aug 4.5 22:17:15 10° W 22:19:11 25° W 22:19:11 25° W visible
04 Aug 5.0 06:53:42 10° NNW 06:56:20 16° NNE 06:58:59 10° NE visible
04 Aug 2.4 20:34:22 10° WSW 20:38:36 61° SSE 20:42:49 10° ENE visible
04 Aug 4.5 22:17:02 10° W 22:19:19 25° WNW 22:19:19 25° WNW visible
05 Aug 4.6 06:52:35 10° NNW 06:55:55 21° NNE 06:59:16 10° ENE visible
05 Aug 2.4 20:33:49 10° WSW 20:38:06 87° NNW 20:42:22 10° ENE visible
05 Aug 4.6 22:17:01 10° WNW 22:19:27 21° NW 22:19:27 21° NW visible
06 Aug 4.1 06:51:38 10° NW 06:55:28 30° NNE 06:59:18 10° E visible
06 Aug 3.0 20:33:23 10° W 20:37:36 57° NNW 20:41:47 10° ENE visible
06 Aug 4.9 22:17:14 10° WNW 22:19:32 17° NNW 22:19:32 17° NNW visible
